TimeEST,TemperatureF,Dew PointF,Humidity,Sea Level PressureIn,VisibilityMPH,Wind Direction,Wind SpeedMPH,Gust SpeedMPH,PrecipitationIn,Events,Conditions,WindDirDegrees,DateUTC
12:15 AM,49.1,43.5,81,30.40,10.0,Calm,Calm,-,N/A,,Overcast,0,2013-11-22 05:15:00
12:35 AM,49.5,42.8,78,30.39,10.0,Calm,Calm,-,N/A,,Overcast,0,2013-11-22 05:35:00
12:55 AM,49.5,43.3,79,30.39,10.0,Calm,Calm,-,N/A,,Overcast,0,2013-11-22 05:55:00
1:15 AM,48.7,43.3,82,30.39,10.0,Calm,Calm,-,N/A,,Overcast,0,2013-11-22 06:15:00
1:35 AM,49.3,43.9,82,30.38,10.0,Calm,Calm,-,N/A,,Overcast,0,2013-11-22 06:35:00
1:55 AM,48.7,43.7,83,30.38,10.0,Calm,Calm,-,N/A,,Overcast,0,2013-11-22 06:55:00
2:15 AM,49.1,43.7,82,30.38,10.0,Calm,Calm,-,N/A,,Overcast,0,2013-11-22 07:15:00
2:35 AM,48.7,43.3,82,30.37,10.0,Calm,Calm,-,N/A,,Overcast,0,2013-11-22 07:35:00
2:55 AM,48.6,42.8,80,30.37,10.0,Calm,Calm,-,N/A,,Overcast,0,2013-11-22 07:55:00
3:15 AM,48.4,42.1,79,30.36,10.0,Calm,Calm,-,N/A,,Mostly Cloudy,0,2013-11-22 08:15:00
3:35 AM,47.8,42.8,83,30.36,10.0,Calm,Calm,-,N/A,,Mostly Cloudy,0,2013-11-22 08:35:00
3:55 AM,48.2,42.1,79,30.36,10.0,Calm,Calm,-,N/A,,Overcast,0,2013-11-22 08:55:00
4:15 AM,48.2,42.3,80,30.35,10.0,Calm,Calm,-,N/A,,Overcast,0,2013-11-22 09:15:00
4:35 AM,48.2,41.9,79,30.34,10.0,Calm,Calm,-,N/A,,Overcast,0,2013-11-22 09:35:00
4:55 AM,47.5,41.9,81,30.33,10.0,Calm,Calm,-,N/A,,Mostly Cloudy,0,2013-11-22 09:55:00
5:15 AM,46.2,41.4,83,30.33,10.0,Calm,Calm,-,N/A,,Scattered Clouds,0,2013-11-22 10:15:00
5:35 AM,47.3,42.6,84,30.33,10.0,Calm,Calm,-,N/A,,Mostly Cloudy,0,2013-11-22 10:35:00
5:55 AM,46.6,41.9,84,30.32,10.0,SW,3.5,-,N/A,,Scattered Clouds,220,2013-11-22 10:55:00
6:15 AM,45.9,41.9,86,30.32,10.0,Calm,Calm,-,N/A,,Clear,0,2013-11-22 11:15:00
6:35 AM,45.7,42.1,87,30.31,10.0,SW,3.5,-,N/A,,Clear,220,2013-11-22 11:35:00
6:55 AM,45.9,42.4,88,30.32,10.0,SW,4.6,-,N/A,,Scattered Clouds,220,2013-11-22 11:55:00
7:15 AM,46.6,43.2,88,30.32,10.0,SW,3.5,-,N/A,,Mostly Cloudy,220,2013-11-22 12:15:00
7:35 AM,48.0,44.1,86,30.31,10.0,Calm,Calm,-,N/A,,Overcast,0,2013-11-22 12:35:00
7:55 AM,48.4,44.2,86,30.31,10.0,Calm,Calm,-,N/A,,Mostly Cloudy,0,2013-11-22 12:55:00
8:15 AM,48.7,44.4,85,30.31,10.0,Calm,Calm,-,N/A,,Scattered Clouds,0,2013-11-22 13:15:00
8:35 AM,50.7,44.1,78,30.32,10.0,Calm,Calm,-,N/A,,Scattered Clouds,0,2013-11-22 13:35:00
8:55 AM,52.7,44.8,74,30.32,10.0,West,3.5,-,N/A,,Scattered Clouds,260,2013-11-22 13:55:00
9:15 AM,53.6,45.5,74,30.32,10.0,Calm,Calm,-,N/A,,Scattered Clouds,0,2013-11-22 14:15:00
9:35 AM,55.4,46.6,72,30.32,10.0,SW,4.6,-,N/A,,Mostly Cloudy,230,2013-11-22 14:35:00
9:55 AM,57.0,48.4,73,30.32,10.0,SW,5.8,-,N/A,,Overcast,230,2013-11-22 14:55:00
10:15 AM,57.4,49.1,74,30.31,10.0,WSW,4.6,-,N/A,,Overcast,240,2013-11-22 15:15:00
10:35 AM,58.1,49.5,73,30.31,10.0,SW,3.5,-,N/A,,Overcast,230,2013-11-22 15:35:00
10:55 AM,59.0,50.0,72,30.29,10.0,SW,4.6,-,N/A,,Overcast,230,2013-11-22 15:55:00
11:15 AM,59.9,50.4,71,30.28,10.0,SSW,5.8,-,N/A,,Overcast,210,2013-11-22 16:15:00
11:35 AM,63.0,52.0,67,30.27,10.0,SSW,12.7,-,N/A,,Mostly Cloudy,210,2013-11-22 16:35:00
11:55 AM,64.2,53.2,67,30.25,10.0,SW,10.4,-,N/A,,Scattered Clouds,220,2013-11-22 16:55:00
12:15 PM,65.3,54.1,67,30.24,10.0,SW,13.8,-,N/A,,Scattered Clouds,220,2013-11-22 17:15:00
12:35 PM,66.9,54.5,64,30.23,10.0,SW,9.2,-,N/A,,Clear,220,2013-11-22 17:35:00
12:55 PM,66.9,54.9,65,30.22,10.0,SW,11.5,18.4,N/A,,Clear,230,2013-11-22 17:55:00
1:15 PM,67.5,55.0,64,30.21,10.0,SW,11.5,18.4,N/A,,Clear,220,2013-11-22 18:15:00
1:35 PM,68.4,54.7,62,30.20,10.0,SSW,12.7,19.6,N/A,,Scattered Clouds,210,2013-11-22 18:35:00
1:55 PM,68.9,54.7,60,30.19,10.0,SW,11.5,-,N/A,,Scattered Clouds,220,2013-11-22 18:55:00
2:15 PM,67.1,55.2,66,30.18,10.0,SSW,12.7,18.4,N/A,,Scattered Clouds,200,2013-11-22 19:15:00
2:35 PM,67.3,55.4,66,30.17,10.0,SW,13.8,-,N/A,,Clear,220,2013-11-22 19:35:00
2:55 PM,67.5,55.2,65,30.17,10.0,SSW,12.7,17.3,N/A,,Clear,200,2013-11-22 19:55:00
3:15 PM,67.6,55.2,64,30.17,10.0,SW,12.7,18.4,N/A,,Scattered Clouds,230,2013-11-22 20:15:00
3:35 PM,66.4,54.7,66,30.16,10.0,SW,13.8,19.6,N/A,,Mostly Cloudy,220,2013-11-22 20:35:00
3:55 PM,66.2,54.9,67,30.16,10.0,SW,9.2,-,N/A,,Scattered Clouds,230,2013-11-22 20:55:00
4:15 PM,65.8,54.9,68,30.15,10.0,SW,11.5,-,N/A,,Scattered Clouds,220,2013-11-22 21:15:00
4:35 PM,65.7,54.9,68,30.14,10.0,SSW,10.4,-,N/A,,Scattered Clouds,210,2013-11-22 21:35:00
4:55 PM,64.9,54.9,70,30.14,10.0,SW,5.8,-,N/A,,Scattered Clouds,220,2013-11-22 21:55:00
5:15 PM,64.6,55.0,71,30.13,10.0,SW,5.8,-,N/A,,Mostly Cloudy,220,2013-11-22 22:15:00
5:35 PM,64.8,55.0,71,30.13,10.0,SW,5.8,-,N/A,,Overcast,220,2013-11-22 22:35:00
5:55 PM,64.4,55.0,72,30.12,10.0,SW,8.1,-,N/A,,Overcast,220,2013-11-22 22:55:00
6:15 PM,64.4,55.0,72,30.12,10.0,SW,6.9,-,N/A,,Overcast,220,2013-11-22 23:15:00
6:35 PM,64.6,55.0,71,30.12,10.0,SW,8.1,-,N/A,,Overcast,220,2013-11-22 23:35:00
6:55 PM,64.4,54.9,71,30.11,10.0,SSW,6.9,-,N/A,,Overcast,210,2013-11-22 23:55:00
7:15 PM,63.9,55.0,73,30.11,10.0,SSW,6.9,-,N/A,,Overcast,210,2013-11-23 00:15:00
7:35 PM,64.4,55.4,73,30.10,10.0,SSW,10.4,-,N/A,,Overcast,210,2013-11-23 00:35:00
7:55 PM,64.0,55.4,73,30.10,10.0,SSW,6.9,-,N/A,,Overcast,210,2013-11-23 00:55:00
8:15 PM,63.9,55.4,74,30.10,10.0,SSW,9.2,-,N/A,,Overcast,210,2013-11-23 01:15:00
8:35 PM,63.9,55.4,74,30.09,10.0,SSW,9.2,-,N/A,,Overcast,210,2013-11-23 01:35:00
8:55 PM,63.1,55.9,77,30.09,10.0,SSW,9.2,-,N/A,,Overcast,210,2013-11-23 01:55:00
9:15 PM,63.0,55.8,77,30.08,10.0,SSW,10.4,-,N/A,,Overcast,210,2013-11-23 02:15:00
9:35 PM,63.0,55.8,77,30.09,10.0,SW,6.9,-,N/A,,Overcast,220,2013-11-23 02:35:00
9:55 PM,62.8,56.3,79,30.09,10.0,SW,8.1,-,N/A,,Overcast,220,2013-11-23 02:55:00
10:15 PM,62.6,56.3,80,30.09,10.0,SW,5.8,-,N/A,,Overcast,220,2013-11-23 03:15:00
10:35 PM,62.1,56.5,82,30.09,7.0,SW,5.8,-,N/A,Rain,Light Rain,230,2013-11-23 03:35:00
10:55 PM,61.0,57.6,88,30.09,10.0,SW,5.8,-,N/A,,Overcast,220,2013-11-23 03:55:00
11:15 PM,61.0,57.6,88,30.09,10.0,SW,5.8,-,N/A,,Overcast,230,2013-11-23 04:15:00
11:35 PM,60.3,57.6,91,30.09,5.0,SSW,4.6,-,N/A,Rain,Light Rain,200,2013-11-23 04:35:00
11:55 PM,60.3,58.1,93,30.07,10.0,SSW,5.8,-,N/A,,Overcast,200,2013-11-23 04:55:00